[Date Prev][Date Next][Thread Prev][Thread Next] - [Date Index][Thread Index][Author Index]
2 Line ISS Keps 6-3
- Subject: [sarex] 2 Line ISS Keps 6-3
- From: "Dave Larsen PhD" <doc@xxxxxxxxxxx>
- Date: Fri, 3 Jun 2005 04:17:28 -0700
ISS
1 25544U 98067A 05154.32549071 .00023047 00000-0 17339-3 0 6142
2 25544 051.6468 331.9368 0004811 200.3101 229.8595 15.72431044373505
----
Via the sarex mailing list at AMSAT.ORG courtesy of AMSAT-NA.
To unsubscribe, send "unsubscribe sarex" to Majordomo@amsat.org
AMSAT Home